User: anonymous   Login
Location: Unspecified
(0.0000°N, 0.0000°E)
Time: 01:25:19
(UTC+01:00)
Language:

Palapa 6 Rocket - Orbit

View from above orbital plane
View from above orbital plane
View from above satellite
View from above satellite

Ground track
Ground track

The orbit data is extracted from the following two-line orbital elements,

1 20571U 90034B   16040.95462220  .00000998  00000-0  99762-4 0  9995
2 20571  22.7483 246.6939 0510329 266.6366  87.5611 14.11464152322258
Epoch (UTC): 09 February 2016 22:54:39
Eccentricity: 0.0510329
inclination: 22.7483°
perigee height: 485 km
apogee height: 1223 km
right ascension of ascending node: 246.6939°
argument of perigee: 266.6366°
revolutions per day: 14.11464152
mean anomaly at epoch: 87.5611°
orbit number at epoch: 32225

The dashed part of the orbit path shows where the satellite is in the earth's shadow,  

DLR